When you browse on this site, cookies collect data to enhance your experience and personalize the content and advertising you see.
Visit our Privacy Policy to learn more. By continuing to use the site, you agree to this use of cookies and data.
  • In Hungary
  • List of Countries
  • For 7 days
  • Water Temperature
  • Satellite Maps
  • Weather Map
  • News
  • Weather Widgets
  • user-avatar
    Login

    Hourly Weather Morgantown

    Today, 21 July, Sunday

    Time Temperature Precipitation Wind Pressure Humidity
    00:00 +25°C° 0 mm 1 mps 731 mmHg 95%
    01:00 +25°C° 0 mm 1 mps 731 mmHg 98%
    02:00 +25°C° 0 mm 1 mps 731 mmHg 98%
    03:00 +24°C° 0 mm 1 mps 731 mmHg 98%
    04:00 +24°C° 0 mm 1 mps 731 mmHg 98%
    05:00 +25°C° 0 mm 2 mps 731 mmHg 98%
    06:00 +25°C° 0 mm 2 mps 731 mmHg 98%
    07:00 +26°C° 0 mm 2 mps 732 mmHg 97%
    08:00 +28°C° 0.2 mm 2 mps 731 mmHg 90%
    09:00 +29°C° 0.2 mm 2 mps 731 mmHg 83%
    10:00 +31°C° 0.2 mm 2 mps 731 mmHg 76%
    11:00 +31°C° 0.6 mm 3 mps 731 mmHg 75%
    12:00 +33°C° 0.6 mm 3 mps 731 mmHg 74%
    13:00 +34°C° 0.6 mm 3 mps 731 mmHg 73%
    14:00 +34°C° 0.5 mm 3 mps 731 mmHg 72%
    15:00 +34°C° 0.5 mm 3 mps 731 mmHg 71%
    16:00 +34°C° 0.5 mm 2 mps 730 mmHg 70%
    17:00 +31°C° 0.8 mm 2 mps 730 mmHg 77%
    18:00 +30°C° 0.8 mm 1 mps 730 mmHg 84%
    19:00 +28°C° 0.8 mm 1 mps 730 mmHg 91%
    20:00 +27°C° 0.9 mm 1 mps 730 mmHg 92%
    21:00 +26°C° 0.9 mm 1 mps 730 mmHg 93%
    22:00 +23°C° 0.9 mm 0 mps 730 mmHg 94%
    23:00 +25°C° 2.7 mm 1 mps 730 mmHg 95%

    Tomorrow, 22 July, Monday

    Time Temperature Precipitation Wind Pressure Humidity
    00:00 +25°C° 2.7 mm 1 mps 730 mmHg 96%
    01:00 +24°C° 2.7 mm 1 mps 730 mmHg 97%
    02:00 +24°C° 0.9 mm 1 mps 730 mmHg 97%
    03:00 +24°C° 0.9 mm 1 mps 729 mmHg 98%
    04:00 +23°C° 0.9 mm 2 mps 729 mmHg 98%
    05:00 +24°C° 0.1 mm 2 mps 729 mmHg 97%
    06:00 +24°C° 0.1 mm 2 mps 729 mmHg 97%
    07:00 +24°C° 0.1 mm 3 mps 729 mmHg 96%
    08:00 +25°C° 1.1 mm 3 mps 729 mmHg 95%
    09:00 +26°C° 1.1 mm 3 mps 729 mmHg 95%
    10:00 +26°C° 1.1 mm 4 mps 729 mmHg 94%
    11:00 +25°C° 3 mm 3 mps 729 mmHg 95%
    12:00 +25°C° 3 mm 3 mps 729 mmHg 97%
    13:00 +24°C° 3 mm 3 mps 729 mmHg 98%
    14:00 +21°C° 4.7 mm 2 mps 729 mmHg 98%
    15:00 +20°C° 4.7 mm 2 mps 729 mmHg 98%
    16:00 +19°C° 4.7 mm 2 mps 729 mmHg 99%
    17:00 +19°C° 1.4 mm 2 mps 729 mmHg 99%
    18:00 +18°C° 1.4 mm 2 mps 729 mmHg 99%
    19:00 +18°C° 1.4 mm 2 mps 729 mmHg 99%
    20:00 +19°C° 0.3 mm 1 mps 729 mmHg 98%
    21:00 +18°C° 0.3 mm 1 mps 729 mmHg 98%
    22:00 +18°C° 0.3 mm 1 mps 730 mmHg 98%
    23:00 +18°C° 0 mm 1 mps 730 mmHg 98%

    Day after tomorrow, 23 July, Tuesday

    Time Temperature Precipitation Wind Pressure Humidity
    00:00 +18°C° 0 mm 1 mps 730 mmHg 97%
    01:00 +18°C° 0 mm 1 mps 730 mmHg 97%
    02:00 +16°C° 0 mm 1 mps 730 mmHg 97%
    03:00 +16°C° 0 mm 1 mps 730 mmHg 98%
    04:00 +14°C° 0 mm 0 mps 730 mmHg 98%
    05:00 +16°C° 0 mm 1 mps 730 mmHg 98%
    06:00 +16°C° 0 mm 1 mps 731 mmHg 98%
    07:00 +18°C° 0 mm 1 mps 731 mmHg 98%
    08:00 +19°C° 0 mm 1 mps 731 mmHg 86%
    09:00 +20°C° 0 mm 2 mps 732 mmHg 75%
    10:00 +21°C° 0 mm 2 mps 732 mmHg 64%
    11:00 +24°C° 0 mm 3 mps 732 mmHg 57%
    12:00 +25°C° 0 mm 3 mps 732 mmHg 50%
    13:00 +26°C° 0 mm 3 mps 732 mmHg 43%
    14:00 +26°C° 0 mm 3 mps 731 mmHg 44%
    15:00 +26°C° 0 mm 3 mps 731 mmHg 45%
    16:00 +26°C° 0 mm 3 mps 731 mmHg 47%
    17:00 +24°C° 0.1 mm 3 mps 731 mmHg 59%
    18:00 +21°C° 0.1 mm 2 mps 731 mmHg 72%
    19:00 +19°C° 0.1 mm 2 mps 732 mmHg 85%
    20:00 +19°C° 0 mm 1 mps 732 mmHg 88%
    21:00 +18°C° 0 mm 1 mps 732 mmHg 91%
    22:00 +14°C° 0 mm 0 mps 732 mmHg 94%
    23:00 +14°C° 0 mm 0 mps 733 mmHg 94%

    24 July, Wednesday

    Time Temperature Precipitation Wind Pressure Humidity
    00:00 +13°C° 0 mm 0 mps 733 mmHg 94%
    01:00 +13°C° 0 mm 0 mps 733 mmHg 94%
    02:00 +13°C° 0 mm 0 mps 733 mmHg 95%
    03:00 +12°C° 0 mm 0 mps 733 mmHg 95%
    04:00 +12°C° 0 mm 0 mps 733 mmHg 96%
    05:00 +13°C° 0 mm 0 mps 733 mmHg 94%
    06:00 +14°C° 0 mm 0 mps 734 mmHg 93%
    07:00 +15°C° 0 mm 0 mps 734 mmHg 92%
    08:00 +17°C° 0 mm 0 mps 735 mmHg 80%
    09:00 +22°C° 0 mm 1 mps 735 mmHg 68%
    10:00 +25°C° 0 mm 1 mps 735 mmHg 56%
    11:00 +25°C° 0 mm 2 mps 735 mmHg 52%
    12:00 +26°C° 0 mm 2 mps 735 mmHg 47%
    13:00 +27°C° 0 mm 2 mps 735 mmHg 42%
    14:00 +27°C° 0 mm 2 mps 734 mmHg 44%
    15:00 +26°C° 0 mm 2 mps 734 mmHg 46%
    16:00 +26°C° 0 mm 2 mps 734 mmHg 48%
    17:00 +25°C° 0 mm 1 mps 734 mmHg 56%
    18:00 +23°C° 0 mm 1 mps 734 mmHg 65%
    19:00 +19°C° 0 mm 0 mps 734 mmHg 74%
    20:00 +18°C° 0 mm 0 mps 735 mmHg 77%
    21:00 +16°C° 0 mm 0 mps 735 mmHg 80%
    22:00 +15°C° 0 mm 0 mps 735 mmHg 84%
    23:00 +14°C° 0 mm 0 mps 735 mmHg 85%

    25 July, Thursday

    Time Temperature Precipitation Wind Pressure Humidity
    00:00 +14°C° 0 mm 0 mps 735 mmHg 87%
    01:00 +13°C° 0 mm 0 mps 735 mmHg 89%
    02:00 +13°C° 0 mm 0 mps 735 mmHg 90%
    03:00 +13°C° 0 mm 0 mps 735 mmHg 90%
    04:00 +12°C° 0 mm 0 mps 735 mmHg 90%
    05:00 +14°C° 0 mm 0 mps 736 mmHg 86%
    06:00 +15°C° 0 mm 0 mps 736 mmHg 83%
    07:00 +16°C° 0 mm 0 mps 737 mmHg 79%
    08:00 +19°C° 0 mm 0 mps 737 mmHg 69%
    09:00 +22°C° 0 mm 0 mps 737 mmHg 59%
    10:00 +26°C° 0 mm 0 mps 738 mmHg 49%
    11:00 +27°C° 0 mm 0 mps 737 mmHg 45%
    12:00 +28°C° 0 mm 0 mps 737 mmHg 41%
    13:00 +29°C° 0 mm 0 mps 737 mmHg 37%
    14:00 +31°C° 0 mm 1 mps 737 mmHg 38%
    15:00 +30°C° 0 mm 1 mps 737 mmHg 38%
    16:00 +29°C° 0 mm 1 mps 736 mmHg 39%
    17:00 +27°C° 0 mm 1 mps 736 mmHg 51%
    18:00 +25°C° 0 mm 1 mps 736 mmHg 62%
    19:00 +23°C° 0 mm 1 mps 736 mmHg 74%
    20:00 +22°C° 0 mm 1 mps 737 mmHg 75%
    21:00 +21°C° 0 mm 1 mps 737 mmHg 77%
    22:00 +19°C° 0 mm 1 mps 737 mmHg 78%
    23:00 +19°C° 0 mm 1 mps 737 mmHg 81%

    26 July, Friday

    Time Temperature Precipitation Wind Pressure Humidity
    00:00 +18°C° 0 mm 1 mps 737 mmHg 84%
    01:00 +16°C° 0 mm 1 mps 737 mmHg 87%
    02:00 +16°C° 0 mm 1 mps 737 mmHg 88%
    03:00 +16°C° 0 mm 1 mps 737 mmHg 88%
    04:00 +16°C° 0 mm 1 mps 737 mmHg 89%
    05:00 +18°C° 0 mm 1 mps 737 mmHg 85%
    06:00 +18°C° 0 mm 0 mps 738 mmHg 82%
    07:00 +19°C° 0 mm 0 mps 738 mmHg 79%
    08:00 +23°C° 0 mm 1 mps 738 mmHg 69%
    09:00 +26°C° 0 mm 1 mps 739 mmHg 60%
    10:00 +29°C° 0 mm 1 mps 739 mmHg 51%
    11:00 +30°C° 0 mm 1 mps 739 mmHg 47%
    12:00 +31°C° 0 mm 1 mps 739 mmHg 43%
    13:00 +32°C° 0 mm 1 mps 739 mmHg 40%
    14:00 +32°C° 0 mm 1 mps 738 mmHg 41%
    15:00 +32°C° 0 mm 1 mps 738 mmHg 42%
    16:00 +31°C° 0 mm 1 mps 738 mmHg 43%
    17:00 +29°C° 0 mm 1 mps 738 mmHg 53%
    18:00 +27°C° 0 mm 1 mps 737 mmHg 63%
    19:00 +24°C° 0 mm 0 mps 737 mmHg 72%
    20:00 +22°C° 0 mm 0 mps 737 mmHg 75%
    21:00 +21°C° 0 mm 0 mps 738 mmHg 78%
    22:00 +19°C° 0 mm 0 mps 738 mmHg 81%
    23:00 +19°C° 0 mm 0 mps 738 mmHg 83%
    Show more